Other Surface Observations
Issued by NWS Tucson, AZ

Home | Current Version | Previous Version | Text Only | Print | Product List | Glossary On
Versions: 1 2 3 4 5 6 7 8 9 10 11 12 13 14 15 16 17 18 19 20 21 22 23 24 25 26 27 28 29 30 31 32 33 34 35 36 37 38 39 40 41 42 43 44 45 46 47 48 49 50
000
SXUS55 KTWC 020016
OSOTWC

WEATHER ROUNDUP FOR SOUTHEAST ARIZONA
NATIONAL WEATHER SERVICE TUCSON AZ
515 PM MST WED JUL 01 2015

AZZ504>506-514-020115-
LOCATION       SKY/WX    TMP DP  RH WIND       PRES   REMARKS
TUCSON         CLOUDY    92  59  33 W12       29.96R
DAVIS-MONTHAN  CLOUDY    91  58  32 NW9       29.95R
CHILDRENS PARK N/A       90  57  33 NW6               PIMA CO DEQ
ALVERNON/22ND  N/A      N/A N/A N/A N/A               PIMA CO DEQ
CHERRY/GLENN   N/A      N/A N/A N/A N/A               PIMA CO DEQ
TANGERINE      N/A       91 N/A N/A W8                PIMA CO DEQ
CONTL RANCH    N/A       93  58  31 NW8               PIMA CO DEQ
GRANT/1ST      N/A       91  57  32 NW6               PIMA CO DEQ
CRAYCROFT/22ND N/A      N/A N/A N/A N/A               PIMA CO DEQ
GOLFLINKS/KOLB N/A      N/A N/A N/A N/A               PIMA CO DEQ
AJO/12TH       N/A       92  57  31 W6                PIMA CO DEQ
SAGUARO EAST   N/A      N/A N/A N/A N/A               PIMA CO DEQ
FAIRGROUNDS    N/A       86 N/A N/A SW7               PIMA CO DEQ
SAGUARO        N/A       89  57  34 W10G20            *SABINO CYN
SAN CARLOS     N/A      100  60  27 W10G17            *SAN CARLOS
GREEN VALLEY   N/A       83  67  58 SW5               PIMA CO DEQ
HORSE CAMP CYN N/A       86  57  38 SW15G25           *ARAVAIPA CYN
RINCON MTNS    N/A       63  60  90 W3                *NR MANNING CAMP
$$

AZZ509>511-020115-
LOCATION       SKY/WX    TMP DP  RH WIND       PRES   REMARKS
SAFFORD        SUNNY    100  48  17 SW7       29.86F
STRAY HORSE    N/A       78  51  39 W9G18             *
TRAIL CABIN    N/A       85  53  33 SW4G12            *N OF GRANVILLE
BLACK HILLS    N/A       98  56  25 W9G16             *N OF FT THOMAS
DRY LAKE       N/A       82  56  41 SW5G11            *NATANES MTNS
NOON CREEK     N/A       94  47  20 NE6G15            *PINALENO MTNS
COLUMBINE      N/A       72  48  42 W2                *PINALENO MTNS
GUTHRIE        N/A       87  50  28 W11G22            *SW OF GUTHRIE
$$

AZZ502-503-513-020115-
LOCATION       SKY/WX    TMP DP  RH WIND       PRES   REMARKS
NOGALES        CLOUDY    73  66  78 NE5       30.07F
SELLS          N/A       90  63  41 W6G16             *
SASABE         N/A       74  65  73 S15G23            *ALTAR VLY
HOPKINS        N/A       67  60  79 W3G11             *SANTA RITA MTNS
CARR CYN       N/A       79  58  49 SW10G19           *W OF HEREFORD
$$

AZZ507-508-512-020115-
LOCATION       SKY/WX    TMP DP  RH WIND       PRES   REMARKS
SIERRA VISTA   CLOUDY    80  61  52 W17G25    30.11R
DOUGLAS        PTSUNNY   91  47  21 SW6       30.00F
EMPIRE MTNS    N/A       77  64  64 SW6G11            *LAS CIENEGAS NCA
MULESHOE RANCH N/A       69  63  80 NW7G39            *PRESERVE
HEADQUARTERS   N/A       88  49  26 SW4G13            *CHIRICAHUA MTNS
$$

.............................NOTES.............................
THIS IS AN AUTOMATED COLLECTIVE WITH MINIMAL QUALITY CONTROL.
PIMA CO DEQ SITES HAVE NONSTANDARD WIND SENSOR HEIGHTS.
PIMA CO DEQ SITES DO NOT REPORT WIND GUSTS.
* INDICATES WIND SENSORS LOCATED AT 20 FEET INSTEAD OF 33 FEET.
..............................KEY..............................
SKY/WX - SKY CONDITION/WEATHER
TMP    - TEMPERATURE IN FAHRENHEIT
DP     - DEWPOINT IN FAHRENHEIT
RH     - RELATIVE HUMIDITY IN PERCENT
WIND   - DIRECTION AND SPEED IN MILES PER HOUR (MPH)
VRB    - VARIABLE WIND DIRECTION
PRES   - MEAN SEA LEVEL PRESSURE IN INCHES OF MERCURY
         F - FALLING PRESSURE   R - RISING PRESSURE
         S - STEADY PRESSURE
VSB    - VISIBILITY IN MILES
HX     - HEAT INDEX IN FAHRENHEIT
WCI    - WIND CHILL INDEX IN FAHRENHEIT
N/A    - NOT AVAILABLE
AFB    - AIR FORCE BASE
         DAVIS-MONTHAN IS DAVIS-MONTHAN AIR FORCE BASE
CYN    - CANYON
MTNS   - MOUNTAINS
NCA    - NATIONAL CONSERVATION AREA
NR     - NEAR
VLY    - VALLEY
CONTL  - CONTINENTAL
PIMA CO DEQ - PIMA COUNTY DEPT OF ENVIRONMENTAL QUALITY



USA.gov is the U.S. government's official web portal to all federal, state and local government web resources and services.